This is the latest recevied weather packets stored in our database for station/object PY2UTU-WX. If no packets are shown the sender has not sent any weather packets the latest 10 day(s).
| Time | Temp. | Humidity | Pressure | Rain* | Wind** | Luminosity | Snow |
|---|---|---|---|---|---|---|---|
| 1777624042 | 19.44° C | 98% | 925.2 hPa | - | - | - | - |
| 1777623142 | 20° C | 98% | 925.2 hPa | - | - | - | - |
| 1777622242 | 18.89° C | 98% | 924.9 hPa | - | - | - | - |
| 1777621342 | 20° C | 98% | 924.9 hPa | - | - | - | - |
| 1777620442 | 19.44° C | 98% | 924.9 hPa | - | - | - | - |
| 1777619542 | 18.89° C | 98% | 924.9 hPa | - | - | - | - |
| 1777618642 | 19.44° C | 98% | 925 hPa | - | - | - | - |
| 1777617742 | 20° C | 98% | 925.1 hPa | - | - | - | - |
| 1777616842 | 20° C | 98% | 925.1 hPa | - | - | - | - |
| 1777615942 | 20° C | 98% | 925.2 hPa | - | - | - | - |
| 1777615042 | 19.44° C | 98% | 925.3 hPa | - | - | - | - |
| 1777614142 | 19.44° C | 98% | 925.4 hPa | - | - | - | - |
| 1777613242 | 19.44° C | 98% | 925.4 hPa | - | - | - | - |
| 1777612342 | 18.89° C | 98% | 925.4 hPa | - | - | - | - |
| 1777611442 | 19.44° C | 98% | 925.5 hPa | - | - | - | - |
| 1777610542 | 20° C | 98% | 925.6 hPa | - | - | - | - |
| 1777609642 | 19.44° C | 98% | 925.6 hPa | - | - | - | - |
| 1777608742 | 18.89° C | 98% | 925.8 hPa | - | - | - | - |
| 1777607842 | 19.44° C | 98% | 926 hPa | - | - | - | - |
| 1777606942 | 19.44° C | 98% | 926.1 hPa | - | - | - | - |
| 1777606042 | 20° C | 98% | 926.1 hPa | - | - | - | - |
| 1777605142 | 18.89° C | 98% | 926.2 hPa | - | - | - | - |
| 1777604242 | 19.44° C | 98% | 926.2 hPa | - | - | - | - |
| 1777603342 | 19.44° C | 98% | 926.4 hPa | - | - | - | - |
| 1777602442 | 20° C | 98% | 926.4 hPa | - | - | - | - |
* Rain since midnight (hover to see other rain measurements)
** Current wind speed in m/s (hover to see current wind gust speed)